| time (UTC) | temp C | wind direction | speed KPH | gust KPH | rain 1hr cm | rain 24hr cm | rain mn cm | humidity % | barometer mb |
| 20260510161551 | 16 | 192 | 11.3 | 19.3 | 0.00 | 0.00 | 0.00 | 41 | 1016.0 |
| 20260510160052 | 16 | 202 | 9.7 | 19.3 | 0.00 | 0.00 | 0.00 | 43 | 1016.2 |
| 20260510154601 | 15 | 175 | 11.3 | 17.7 | 0.00 | 0.00 | 0.00 | 44 | 1016.4 |
| 20260510153058 | 15 | 163 | 8.0 | 16.1 | 0.00 | 0.00 | 0.00 | 48 | 1016.5 |
| 20260510151559 | 13 | 163 | 12.9 | 19.3 | 0.00 | 0.00 | 0.00 | 54 | 1016.7 |
| 20260510150057 | 12 | 141 | 8.0 | 16.1 | 0.00 | 0.00 | 0.00 | 59 | 1016.7 |
| 20260510144602 | 11 | 132 | 6.4 | 12.9 | 0.00 | 0.00 | 0.00 | 67 | 1016.7 |
| 20260510143051 | 10 | 88 | 3.2 | 9.7 | 0.00 | 0.00 | 0.00 | 72 | 1016.8 |
| 20260510141553 | 9 | 33 | 4.8 | 9.7 | 0.00 | 0.00 | 0.00 | 74 | 1017.1 |
| 20260510140057 | 8 | 33 | 0.0 | 4.8 | 0.00 | 0.00 | 0.00 | 77 | 1017.1 |
| 20260510134552 | 7 | 33 | 0.0 | 6.4 | 0.00 | 0.00 | 0.00 | 80 | 1017.0 |
| 20260510133052 | 6 | 0 | 1.6 | 4.8 | 0.00 | 0.00 | 0.00 | 83 | 1017.0 |
| 20260510131551 | 5 | 0 | 0.0 | 1.6 | 0.00 | 0.00 | 0.00 | 85 | 1017.1 |
| 20260510130057 | 4 | 0 | 0.0 | 4.8 | 0.00 | 0.00 | 0.00 | 88 | 1017.3 |
| 20260510124552 | 3 | 0 | 1.6 | 6.4 | 0.00 | 0.00 | 0.00 | 87 | 1017.3 |
| 20260510123056 | 2 | 0 | 1.6 | 4.8 | 0.00 | 0.00 | 0.00 | 87 | 1017.3 |
| 20260510121555 | 2 | 112 | 4.8 | 9.7 | 0.00 | 0.00 | 0.00 | 86 | 1017.3 |
| 20260510114602 | 2 | 112 | 3.2 | 6.4 | 0.00 | 0.00 | 0.00 | 85 | 1017.4 |
| 20260510113056 | 2 | 112 | 3.2 | 6.4 | 0.00 | 0.00 | 0.00 | 85 | 1017.5 |
| 20260510111551 | 3 | 112 | 4.8 | 6.4 | 0.00 | 0.00 | 0.00 | 85 | 1017.4 |
| 20260510110056 | 3 | 112 | 3.2 | 4.8 | 0.00 | 0.00 | 0.00 | 84 | 1017.5 |
| 20260510104552 | 3 | 112 | 3.2 | 6.4 | 0.00 | 0.00 | 0.00 | 83 | 1017.5 |
| 20260510103053 | 4 | 112 | 3.2 | 4.8 | 0.00 | 0.00 | 0.00 | 82 | 1017.6 |
| 20260510101603 | 4 | 112 | 1.6 | 6.4 | 0.00 | 0.00 | 0.00 | 81 | 1017.7 |
| 20260510094556 | 5 | 112 | 1.6 | 4.8 | 0.00 | 0.00 | 0.00 | 82 | 1017.5 |
| 20260510093056 | 5 | 0 | 0.0 | 6.4 | 0.00 | 0.00 | 0.00 | 82 | 1017.6 |
| 20260510091558 | 5 | 112 | 0.0 | 4.8 | 0.00 | 0.00 | 0.00 | 81 | 1017.8 |
| 20260510090053 | 5 | 0 | 0.0 | 1.6 | 0.00 | 0.00 | 0.00 | 81 | 1017.8 |
| 20260510084609 | 5 | 112 | 1.6 | 4.8 | 0.00 | 0.00 | 0.00 | 79 | 1017.8 |
| 20260510083057 | 6 | 112 | 4.8 | 6.4 | 0.00 | 0.00 | 0.00 | 78 | 1017.9 |
| 20260510081559 | 6 | 112 | 1.6 | 6.4 | 0.00 | 0.00 | 0.00 | 78 | 1018.0 |
| 20260510080100 | 7 | 112 | 1.6 | 6.4 | 0.00 | 0.00 | 0.00 | 77 | 1018.0 |
| 20260510074554 | 7 | 112 | 1.6 | 4.8 | 0.00 | 0.00 | 0.00 | 77 | 1017.9 |
| 20260510073059 | 7 | 112 | 3.2 | 4.8 | 0.00 | 0.00 | 0.00 | 77 | 1018.0 |
| 20260510071557 | 8 | 112 | 3.2 | 6.4 | 0.00 | 0.00 | 0.00 | 77 | 1018.0 |
| 20260510064551 | 8 | 0 | 0.0 | 0.0 | 0.00 | 0.00 | 0.00 | 78 | 1018.0 |
| 20260510063051 | 8 | 0 | 0.0 | 0.0 | 0.00 | 0.00 | 0.00 | 78 | 1017.9 |
| 20260510061551 | 8 | 0 | 0.0 | 6.4 | 0.00 | 0.00 | 0.00 | 76 | 1018.1 |
| 20260510060052 | 8 | 112 | 4.8 | 9.7 | 0.00 | 0.00 | 0.00 | 77 | 1018.1 |
| 20260510054549 | 8 | 112 | 6.4 | 12.9 | 0.00 | 0.00 | 0.00 | 74 | 1018.0 |
| 20260510053053 | 10 | 112 | 9.7 | 12.9 | 0.00 | 0.00 | 0.00 | 73 | 1018.0 |
| 20260510051605 | 10 | 112 | 4.8 | 11.3 | 0.00 | 0.00 | 0.00 | 70 | 1017.9 |
| 20260510050059 | 10 | 112 | 4.8 | 14.5 | 0.00 | 0.00 | 0.00 | 68 | 1017.8 |
| 20260510044552 | 10 | 112 | 4.8 | 11.3 | 0.00 | 0.00 | 0.00 | 67 | 1018.0 |
| 20260510043049 | 11 | 112 | 4.8 | 9.7 | 0.00 | 0.00 | 0.00 | 64 | 1018.0 |
| 20260510041551 | 11 | 112 | 6.4 | 12.9 | 0.00 | 0.00 | 0.00 | 59 | 1017.9 |
| 20260510040103 | 11 | 0 | 0.0 | 0.0 | 0.00 | 0.00 | 0.00 | 57 | 1017.7 |
| 20260510034550 | 12 | 0 | 0.0 | 4.8 | 0.00 | 0.00 | 0.00 | 53 | 1017.5 |
| 20260510033056 | 12 | 201 | 1.6 | 6.4 | 0.00 | 0.00 | 0.00 | 52 | 1017.3 |
| 20260510031550 | 13 | 0 | 0.0 | 0.0 | 0.00 | 0.00 | 0.00 | 52 | 1017.1 |
| 20260510030056 | 13 | 0 | 1.6 | 4.8 | 0.00 | 0.00 | 0.00 | 48 | 1016.8 |
| 20260510024552 | 15 | 201 | 3.2 | 6.4 | 0.00 | 0.00 | 0.00 | 45 | 1016.6 |
| 20260510023049 | 16 | 201 | 3.2 | 6.4 | 0.00 | 0.00 | 0.00 | 43 | 1016.7 |
| 20260510021641 | 17 | 0 | 1.6 | 4.8 | 0.00 | 0.00 | 0.00 | 41 | 1016.7 |
| 20260510020051 | 17 | 201 | 3.2 | 6.4 | 0.00 | 0.00 | 0.00 | 41 | 1016.8 |
| 20260510014559 | 17 | 0 | 3.2 | 8.0 | 0.00 | 0.00 | 0.00 | 40 | 1016.7 |
| 20260510013102 | 17 | 201 | 4.8 | 9.7 | 0.00 | 0.00 | 0.00 | 39 | 1016.7 |
| 20260510011559 | 18 | 202 | 0.0 | 6.4 | 0.00 | 0.00 | 0.00 | 39 | 1016.6 |
| 20260510010055 | 18 | 0 | 0.0 | 11.3 | 0.00 | 0.00 | 0.00 | 39 | 1016.7 |
| 20260510004550 | 18 | 213 | 3.2 | 9.7 | 0.00 | 0.00 | 0.00 | 39 | 1016.8 |
| 20260510003050 | 18 | 0 | 0.0 | 6.4 | 0.00 | 0.00 | 0.00 | 39 | 1016.7 |
| 20260510001551 | 18 | 0 | 0.0 | 14.5 | 0.00 | 0.00 | 0.00 | 41 | 1016.8 |
| 20260510000050 | 18 | 155 | 0.0 | 8.0 | 0.00 | 0.00 | 0.00 | 42 | 1016.8 |
| 20260509234548 | 17 | 153 | 3.2 | 11.3 | 0.00 | 0.00 | 0.00 | 42 | 1016.8 |
| 20260509233052 | 17 | 175 | 4.8 | 12.9 | 0.00 | 0.00 | 0.00 | 42 | 1016.7 |
| 20260509231550 | 17 | 168 | 8.0 | 16.1 | 0.00 | 0.00 | 0.00 | 42 | 1016.8 |
| 20260509230055 | 17 | 211 | 11.3 | 25.7 | 0.00 | 0.00 | 0.00 | 42 | 1016.9 |
| 20260509224549 | 17 | 178 | 6.4 | 22.5 | 0.00 | 0.00 | 0.00 | 40 | 1017.0 |
| 20260509223054 | 17 | 0 | 3.2 | 12.9 | 0.00 | 0.00 | 0.00 | 39 | 1016.9 |
| 20260509221550 | 18 | 218 | 6.4 | 17.7 | 0.00 | 0.00 | 0.00 | 39 | 1017.0 |
| 20260509220053 | 17 | 235 | 6.4 | 17.7 | 0.00 | 0.00 | 0.00 | 40 | 1017.0 |
| 20260509214552 | 17 | 0 | 0.0 | 14.5 | 0.00 | 0.00 | 0.00 | 40 | 1017.2 |
| 20260509213105 | 17 | 238 | 11.3 | 19.3 | 0.00 | 0.00 | 0.00 | 39 | 1017.3 |
| 20260509211601 | 17 | 281 | 8.0 | 22.5 | 0.00 | 0.00 | 0.00 | 38 | 1017.4 |
| 20260509210056 | 18 | 0 | 6.4 | 19.3 | 0.00 | 0.00 | 0.00 | 37 | 1017.3 |
| 20260509204552 | 17 | 209 | 11.3 | 22.5 | 0.00 | 0.00 | 0.00 | 40 | 1017.5 |
| 20260509203100 | 17 | 228 | 12.9 | 20.9 | 0.00 | 0.00 | 0.00 | 40 | 1017.5 |
| 20260509201550 | 17 | 205 | 1.6 | 14.5 | 0.00 | 0.00 | 0.00 | 40 | 1017.4 |
| 20260509200054 | 17 | 0 | 12.9 | 24.1 | 0.00 | 0.00 | 0.00 | 38 | 1017.3 |
| 20260509194600 | 17 | 222 | 3.2 | 17.7 | 0.00 | 0.00 | 0.00 | 40 | 1017.3 |
| 20260509193057 | 17 | 189 | 4.8 | 14.5 | 0.00 | 0.00 | 0.00 | 41 | 1017.4 |
| 20260509191606 | 16 | 232 | 8.0 | 17.7 | 0.00 | 0.00 | 0.00 | 41 | 1017.4 |
| 20260509190057 | 16 | 221 | 1.6 | 8.0 | 0.00 | 0.00 | 0.00 | 41 | 1017.4 |
| 20260509184600 | 16 | 0 | 0.0 | 8.0 | 0.00 | 0.00 | 0.00 | 40 | 1017.4 |
| 20260509183058 | 16 | 0 | 3.2 | 11.3 | 0.00 | 0.00 | 0.00 | 39 | 1017.4 |
| 20260509181555 | 16 | 0 | 0.0 | 8.0 | 0.00 | 0.00 | 0.00 | 40 | 1017.4 |
| 20260509180110 | 16 | 0 | 3.2 | 9.7 | 0.00 | 0.00 | 0.00 | 39 | 1017.1 |
| 20260509174549 | 15 | 140 | 0.0 | 11.3 | 0.00 | 0.00 | 0.00 | 40 | 1017.1 |
| 20260509173059 | 16 | 138 | 3.2 | 11.3 | 0.00 | 0.00 | 0.00 | 40 | 1017.1 |
| 20260509171552 | 15 | 0 | 1.6 | 14.5 | 0.00 | 0.00 | 0.00 | 39 | 1017.0 |
| 20260509170050 | 15 | 76 | 9.7 | 12.9 | 0.00 | 0.00 | 0.00 | 39 | 1017.0 |
| 20260509164548 | 15 | 57 | 3.2 | 8.0 | 0.00 | 0.00 | 0.00 | 42 | 1017.0 |
| 20260509163053 | 15 | 0 | 1.6 | 12.9 | 0.00 | 0.00 | 0.00 | 41 | 1017.0 |